SVA1125 OEDF-OEJN

Flight info

Callsign SVA1125
Flight time 1h 56m
Altitude 36000
Route EMUSA Q212 GETOT J852 KSA G782 RGB M309 VEMEM
Aircraft A320/M-SDE3FGHIRWY/LB1

Departure

Time 2026-04-29 18:30
Airport King Fahd International Airport (OEDF)

Arrival

Time 2026-04-29 20:26
Airport King Abdulaziz International Airport (OEJN)
Time Latitude Longitude Altitude Speed Heading
2026-04-29 18:09 26.46886 49.79497 57 ft 0 kts 75°
2026-04-29 18:18 26.46883 49.79484 89 ft 3 kts 72°
2026-04-29 18:18 26.46876 49.79462 89 ft 3 kts 70°
2026-04-29 18:19 26.46870 49.79444 87 ft 3 kts 77°
2026-04-29 18:19 26.46869 49.79424 88 ft 3 kts 115°
2026-04-29 18:19 26.46875 49.79413 89 ft 3 kts 143°
2026-04-29 18:19 26.46888 49.79404 88 ft 1 kts 157°
2026-04-29 18:20 26.46893 49.79402 87 ft 0 kts 157°
2026-04-29 18:23 26.46892 49.79402 85 ft 1 kts 157°
2026-04-29 18:23 26.46863 49.79416 86 ft 8 kts 157°
2026-04-29 18:24 26.46786 49.79442 87 ft 15 kts 167°
2026-04-29 18:24 26.46664 49.79472 86 ft 21 kts 167°
2026-04-29 18:24 26.46547 49.79490 88 ft 12 kts 176°
2026-04-29 18:24 26.46477 49.79469 87 ft 10 kts 226°
2026-04-29 18:25 26.46453 49.79403 87 ft 10 kts 253°
2026-04-29 18:25 26.46431 49.79316 89 ft 14 kts 254°
2026-04-29 18:25 26.46369 49.79234 87 ft 17 kts 181°
2026-04-29 18:25 26.46242 49.79269 88 ft 21 kts 165°
2026-04-29 18:26 26.46091 49.79315 89 ft 21 kts 164°
2026-04-29 18:26 26.45948 49.79361 88 ft 23 kts 164°
2026-04-29 18:26 26.45789 49.79408 89 ft 25 kts 165°
2026-04-29 18:26 26.45664 49.79444 87 ft 17 kts 175°
2026-04-29 18:27 26.45605 49.79387 86 ft 10 kts 250°
2026-04-29 18:27 26.45586 49.79304 89 ft 12 kts 255°
2026-04-29 18:27 26.45576 49.79270 87 ft 0 kts 253°
2026-04-29 18:28 26.45576 49.79269 87 ft 3 kts 253°
2026-04-29 18:28 26.45566 49.79177 87 ft 14 kts 287°
2026-04-29 18:28 26.45633 49.79135 87 ft 0 kts 347°
2026-04-29 18:29 26.45740 49.79106 88 ft 50 kts 345°
2026-04-29 18:29 26.46563 49.78846 87 ft 130 kts 344°
2026-04-29 18:29 26.47582 49.78529 165 ft 167 kts 344°
2026-04-29 18:30 26.48717 49.78199 761 ft 170 kts 346°
2026-04-29 18:30 26.49873 49.77863 1393 ft 172 kts 346°
2026-04-29 18:30 26.51015 49.77505 1959 ft 178 kts 345°
2026-04-29 18:30 26.52280 49.77105 2201 ft 200 kts 345°
2026-04-29 18:31 26.53700 49.76658 2431 ft 222 kts 344°
2026-04-29 18:31 26.55240 49.76174 2917 ft 238 kts 343°
2026-04-29 18:31 26.56842 49.75527 3379 ft 253 kts 327°
2026-04-29 18:31 26.58107 49.74130 3832 ft 262 kts 298°
2026-04-29 18:32 26.58593 49.72176 4304 ft 265 kts 269°
2026-04-29 18:32 26.57405 49.68281 5194 ft 268 kts 246°
2026-04-29 18:32 26.56634 49.66381 5662 ft 269 kts 246°
2026-04-29 18:33 26.55857 49.64472 6129 ft 271 kts 246°
2026-04-29 18:33 26.55077 49.62556 6574 ft 271 kts 246°
2026-04-29 18:33 26.54298 49.60635 7019 ft 272 kts 246°
2026-04-29 18:33 26.53520 49.58708 7469 ft 272 kts 246°
2026-04-29 18:34 26.52752 49.56802 7975 ft 272 kts 247°
2026-04-29 18:34 26.52228 49.55501 8386 ft 273 kts 247°
2026-04-29 18:34 26.51197 49.52939 9199 ft 274 kts 247°
2026-04-29 18:34 26.50417 49.50998 9838 ft 274 kts 246°
2026-04-29 18:35 26.49633 49.49041 10429 ft 279 kts 246°
2026-04-29 18:35 26.48830 49.47039 11022 ft 286 kts 246°
2026-04-29 18:35 26.48006 49.44993 11625 ft 292 kts 246°
2026-04-29 18:35 26.47162 49.42902 12241 ft 298 kts 246°
2026-04-29 18:36 26.46302 49.40773 12874 ft 304 kts 246°
2026-04-29 18:36 26.45425 49.38609 13516 ft 308 kts 246°
2026-04-29 18:36 26.44536 49.36410 14115 ft 313 kts 246°
2026-04-29 18:36 26.43639 49.34185 14700 ft 316 kts 246°
2026-04-29 18:37 26.42732 49.31934 15294 ft 320 kts 246°
2026-04-29 18:37 26.41813 49.29663 15908 ft 322 kts 245°
2026-04-29 18:37 26.40885 49.27371 16532 ft 324 kts 245°
2026-04-29 18:37 26.39964 49.25104 17159 ft 326 kts 245°
2026-04-29 18:38 26.39026 49.22797 17806 ft 327 kts 245°
2026-04-29 18:38 26.38085 49.20483 18420 ft 328 kts 245°
2026-04-29 18:38 26.37142 49.18161 18993 ft 328 kts 245°
2026-04-29 18:38 26.36199 49.15840 19581 ft 328 kts 244°
2026-04-29 18:39 26.35257 49.13519 20170 ft 328 kts 244°
2026-04-29 18:39 26.34312 49.11197 20772 ft 328 kts 244°
2026-04-29 18:39 26.33372 49.08884 21389 ft 327 kts 244°
2026-04-29 18:39 26.32435 49.06580 22023 ft 326 kts 244°
2026-04-29 18:40 26.31502 49.04287 22675 ft 324 kts 244°
2026-04-29 18:40 26.30575 49.02012 23326 ft 321 kts 244°
2026-04-29 18:40 26.29654 48.99754 23898 ft 319 kts 244°
2026-04-29 18:40 26.28742 48.97516 24452 ft 315 kts 244°
2026-04-29 18:41 26.26069 48.90966 26190 ft 303 kts 244°
2026-04-29 18:41 26.25204 48.88846 26792 ft 297 kts 244°
2026-04-29 18:42 26.24370 48.86801 27402 ft 291 kts 244°
2026-04-29 18:42 26.23540 48.84776 28032 ft 284 kts 244°
2026-04-29 18:42 26.22730 48.82802 28668 ft 276 kts 244°
2026-04-29 18:42 26.21935 48.80865 29093 ft 276 kts 244°
2026-04-29 18:43 26.21136 48.78918 29404 ft 277 kts 245°
2026-04-29 18:43 26.20332 48.76956 29719 ft 279 kts 245°
2026-04-29 18:43 26.19522 48.74986 30019 ft 280 kts 245°
2026-04-29 18:43 26.18752 48.72984 30223 ft 284 kts 249°
2026-04-29 18:44 26.18206 48.70834 30308 ft 293 kts 256°
2026-04-29 18:44 26.17899 48.68572 30506 ft 297 kts 258°
2026-04-29 18:44 26.17616 48.66282 30735 ft 300 kts 258°
2026-04-29 18:44 26.17323 48.63976 30949 ft 303 kts 258°
2026-04-29 18:45 26.17020 48.61630 31060 ft 310 kts 258°
2026-04-29 18:45 26.16709 48.59234 31178 ft 316 kts 258°
2026-04-29 18:45 26.16392 48.56782 31297 ft 323 kts 258°
2026-04-29 18:45 26.16068 48.54285 31421 ft 330 kts 258°
2026-04-29 18:46 26.15739 48.51734 31539 ft 336 kts 258°
2026-04-29 18:46 26.15405 48.49138 31660 ft 342 kts 258°
2026-04-29 18:46 26.15070 48.46535 31780 ft 347 kts 258°
2026-04-29 18:46 26.14725 48.43855 31905 ft 352 kts 258°
2026-04-29 18:47 26.14372 48.41133 32027 ft 357 kts 258°
2026-04-29 18:47 26.14016 48.38376 32151 ft 362 kts 258°
2026-04-29 18:47 26.13655 48.35581 32272 ft 367 kts 258°
2026-04-29 18:47 26.13285 48.32745 32396 ft 371 kts 258°
2026-04-29 18:48 26.12909 48.29883 32526 ft 375 kts 258°
2026-04-29 18:48 26.12531 48.26998 32649 ft 379 kts 258°
2026-04-29 18:48 26.12149 48.24081 32773 ft 382 kts 258°
2026-04-29 18:48 26.11758 48.21144 32885 ft 385 kts 257°
2026-04-29 18:49 26.11063 48.18316 33009 ft 385 kts 248°
2026-04-29 18:49 26.09868 48.15644 33135 ft 387 kts 238°
2026-04-29 18:49 26.08239 48.13238 33265 ft 390 kts 233°
2026-04-29 18:49 26.06505 48.10903 33391 ft 392 kts 233°
2026-04-29 18:50 26.04762 48.08559 33520 ft 394 kts 233°
2026-04-29 18:50 26.03014 48.06211 33653 ft 395 kts 233°
2026-04-29 18:50 26.01262 48.03855 33778 ft 396 kts 233°
2026-04-29 18:50 25.99528 48.01524 33918 ft 396 kts 233°
2026-04-29 18:51 25.96013 47.96799 34125 ft 397 kts 233°
2026-04-29 18:51 25.94249 47.94429 34239 ft 398 kts 233°
2026-04-29 18:51 25.92483 47.92056 34347 ft 398 kts 232°
2026-04-29 18:52 25.90716 47.89686 34459 ft 398 kts 232°
2026-04-29 18:52 25.88947 47.87317 34576 ft 398 kts 232°
2026-04-29 18:52 25.87175 47.84942 34684 ft 398 kts 232°
2026-04-29 18:52 25.85405 47.82569 34801 ft 398 kts 232°
2026-04-29 18:53 25.83640 47.80202 34922 ft 398 kts 232°
2026-04-29 18:53 25.81876 47.77837 35010 ft 398 kts 232°
2026-04-29 18:53 25.80109 47.75469 35124 ft 398 kts 232°
2026-04-29 18:53 25.78342 47.73103 35239 ft 398 kts 232°
2026-04-29 18:54 25.76577 47.70740 35359 ft 398 kts 232°
2026-04-29 18:54 25.74810 47.68377 35475 ft 398 kts 232°
2026-04-29 18:54 25.73042 47.66019 35591 ft 398 kts 232°
2026-04-29 18:54 25.71298 47.63692 35707 ft 397 kts 232°
2026-04-29 18:55 25.69531 47.61338 35861 ft 396 kts 232°
2026-04-29 18:55 25.67764 47.58980 35937 ft 397 kts 232°
2026-04-29 18:55 25.64224 47.54246 35956 ft 400 kts 232°
2026-04-29 18:56 25.60659 47.49489 35957 ft 400 kts 232°
2026-04-29 18:56 25.57092 47.44748 35961 ft 401 kts 232°
2026-04-29 18:57 25.53547 47.40046 35960 ft 401 kts 232°
2026-04-29 18:57 25.49969 47.35307 35964 ft 401 kts 232°
2026-04-29 18:58 25.46398 47.30570 35961 ft 401 kts 232°
2026-04-29 18:58 25.42823 47.25835 35968 ft 401 kts 232°
2026-04-29 18:59 25.39251 47.21104 35966 ft 401 kts 232°
2026-04-29 18:59 25.35667 47.16370 35954 ft 401 kts 232°
2026-04-29 19:00 25.32080 47.11640 35964 ft 401 kts 232°
2026-04-29 19:00 25.28498 47.06914 35967 ft 401 kts 232°
2026-04-29 19:01 25.24938 47.02215 35968 ft 401 kts 232°
2026-04-29 19:01 25.21343 46.97492 35971 ft 401 kts 232°
2026-04-29 19:02 25.18358 46.93569 35981 ft 401 kts 232°
2026-04-29 19:02 25.14169 46.88065 35982 ft 400 kts 232°
2026-04-29 19:03 25.10587 46.83360 35985 ft 400 kts 232°
2026-04-29 19:03 25.07006 46.78657 35983 ft 400 kts 232°
2026-04-29 19:04 25.03425 46.73966 35980 ft 400 kts 232°
2026-04-29 19:04 24.99838 46.69284 35975 ft 400 kts 232°
2026-04-29 19:05 24.96565 46.64406 35978 ft 398 kts 238°
2026-04-29 19:05 24.93587 46.59262 35942 ft 398 kts 238°
2026-04-29 19:06 24.90591 46.54111 35949 ft 399 kts 238°
2026-04-29 19:07 24.86079 46.46387 35960 ft 400 kts 238°
2026-04-29 19:07 24.83069 46.41242 35970 ft 400 kts 238°
2026-04-29 19:08 24.80566 46.36957 35966 ft 400 kts 238°
2026-04-29 19:08 24.77556 46.31807 35972 ft 400 kts 238°
2026-04-29 19:09 24.74056 46.25823 35975 ft 400 kts 238°
2026-04-29 19:09 24.71531 46.21517 35974 ft 400 kts 238°
2026-04-29 19:10 24.68528 46.16408 35951 ft 400 kts 238°
2026-04-29 19:10 24.65495 46.11239 35952 ft 400 kts 238°
2026-04-29 19:11 24.62471 46.06098 35952 ft 400 kts 238°
2026-04-29 19:11 24.59457 46.00984 35951 ft 401 kts 238°
2026-04-29 19:12 24.56429 45.95845 35942 ft 401 kts 238°
2026-04-29 19:12 24.53397 45.90701 35937 ft 402 kts 238°
2026-04-29 19:13 24.50349 45.85545 35940 ft 402 kts 238°
2026-04-29 19:13 24.47293 45.80377 35943 ft 403 kts 238°
2026-04-29 19:14 24.44459 45.75128 35923 ft 403 kts 244°
2026-04-29 19:14 24.42009 45.69580 35924 ft 404 kts 244°
2026-04-29 19:15 24.39542 45.64035 35927 ft 404 kts 243°
2026-04-29 19:15 24.37067 45.58487 35930 ft 405 kts 243°
2026-04-29 19:16 24.34601 45.52963 35928 ft 405 kts 243°
2026-04-29 19:16 24.32122 45.47398 35931 ft 406 kts 243°
2026-04-29 19:17 24.29643 45.41833 35933 ft 406 kts 243°
2026-04-29 19:17 24.27164 45.36273 35939 ft 406 kts 243°
2026-04-29 19:18 24.24669 45.30714 35945 ft 406 kts 243°
2026-04-29 19:18 24.22186 45.25187 35943 ft 406 kts 243°
2026-04-29 19:19 24.19693 45.19627 35919 ft 406 kts 243°
2026-04-29 19:19 24.17194 45.14062 35929 ft 408 kts 244°
2026-04-29 19:20 24.14684 45.08485 35934 ft 409 kts 244°
2026-04-29 19:20 24.12174 45.02901 35938 ft 409 kts 244°
2026-04-29 19:21 24.09667 44.97345 35950 ft 410 kts 244°
2026-04-29 19:21 24.07140 44.91757 35951 ft 410 kts 244°
2026-04-29 19:22 24.04609 44.86167 35949 ft 410 kts 244°
2026-04-29 19:22 24.02074 44.80573 35953 ft 410 kts 244°
2026-04-29 19:23 23.99539 44.74989 35961 ft 410 kts 244°
2026-04-29 19:23 23.97000 44.69386 35933 ft 411 kts 243°
2026-04-29 19:24 23.94457 44.63778 35937 ft 412 kts 243°
2026-04-29 19:24 23.92040 44.58141 35950 ft 413 kts 248°
2026-04-29 19:25 23.89988 44.52276 35952 ft 413 kts 248°
2026-04-29 19:25 23.87931 44.46410 35948 ft 413 kts 248°
2026-04-29 19:26 23.85868 44.40547 35954 ft 413 kts 248°
2026-04-29 19:26 23.83812 44.34719 35948 ft 413 kts 248°
2026-04-29 19:27 23.81747 44.28868 35949 ft 413 kts 248°
2026-04-29 19:27 23.79676 44.23008 35942 ft 413 kts 248°
2026-04-29 19:28 23.77603 44.17162 35946 ft 413 kts 248°
2026-04-29 19:28 23.75533 44.11315 35929 ft 412 kts 248°
2026-04-29 19:29 23.73465 44.05473 35931 ft 413 kts 248°
2026-04-29 19:29 23.71401 43.99667 35931 ft 413 kts 248°
2026-04-29 19:30 23.69313 43.93822 35940 ft 413 kts 248°
2026-04-29 19:30 23.67233 43.87987 35946 ft 412 kts 248°
2026-04-29 19:31 23.65155 43.82152 35954 ft 412 kts 248°
2026-04-29 19:31 23.63072 43.76323 35938 ft 412 kts 248°
2026-04-29 19:32 23.61000 43.70537 35937 ft 413 kts 248°
2026-04-29 19:32 23.58911 43.64707 35946 ft 413 kts 248°
2026-04-29 19:33 23.56821 43.58876 35957 ft 413 kts 248°
2026-04-29 19:33 23.54728 43.53050 35956 ft 413 kts 248°
2026-04-29 19:34 23.52633 43.47224 35962 ft 413 kts 248°
2026-04-29 19:34 23.50531 43.41400 35970 ft 413 kts 248°
2026-04-29 19:35 23.48443 43.35615 35969 ft 413 kts 248°
2026-04-29 19:35 23.46340 43.29799 35979 ft 413 kts 248°
2026-04-29 19:36 23.44237 43.23972 35990 ft 413 kts 248°
2026-04-29 19:36 23.42129 43.18151 35999 ft 412 kts 248°
2026-04-29 19:37 23.40021 43.12343 36002 ft 412 kts 248°
2026-04-29 19:37 23.37926 43.06579 36002 ft 412 kts 248°
2026-04-29 19:38 23.35822 43.00782 36009 ft 412 kts 248°
2026-04-29 19:38 23.33707 42.94985 36006 ft 412 kts 248°
2026-04-29 19:39 23.31586 42.89189 36003 ft 412 kts 248°
2026-04-29 19:39 23.29469 42.83395 36004 ft 412 kts 248°
2026-04-29 19:40 23.27351 42.77602 35986 ft 412 kts 248°
2026-04-29 19:40 23.25238 42.71848 35987 ft 412 kts 248°
2026-04-29 19:41 23.23104 42.66045 35995 ft 413 kts 248°
2026-04-29 19:41 23.20976 42.60246 36005 ft 413 kts 248°
2026-04-29 19:42 23.18842 42.54443 36005 ft 413 kts 248°
2026-04-29 19:42 23.16721 42.48681 36009 ft 413 kts 248°
2026-04-29 19:43 23.14586 42.42888 35996 ft 413 kts 248°
2026-04-29 19:43 23.12443 42.37086 36010 ft 413 kts 248°
2026-04-29 19:44 23.10331 42.31276 36009 ft 413 kts 249°
2026-04-29 19:44 23.08268 42.25447 36011 ft 413 kts 249°
2026-04-29 19:45 23.06201 42.19616 36028 ft 413 kts 249°
2026-04-29 19:45 23.04121 42.13793 36029 ft 413 kts 249°
2026-04-29 19:46 23.02042 42.07987 36018 ft 413 kts 249°
2026-04-29 19:46 22.99954 42.02178 36019 ft 413 kts 249°
2026-04-29 19:47 22.97870 41.96366 36029 ft 413 kts 249°
2026-04-29 19:47 22.95791 41.90594 36033 ft 413 kts 249°
2026-04-29 19:48 22.93702 41.84796 36033 ft 413 kts 249°
2026-04-29 19:48 22.91615 41.78992 36036 ft 413 kts 249°
2026-04-29 19:49 22.89521 41.73190 36031 ft 413 kts 249°
2026-04-29 19:49 22.87428 41.67395 36037 ft 413 kts 249°
2026-04-29 19:50 22.85329 41.61595 36034 ft 413 kts 249°
2026-04-29 19:50 22.83239 41.55833 36053 ft 413 kts 249°
2026-04-29 19:51 22.81137 41.50036 36058 ft 413 kts 249°
2026-04-29 19:51 22.79036 41.44246 36057 ft 412 kts 249°
2026-04-29 19:52 22.76929 41.38464 36040 ft 413 kts 249°
2026-04-29 19:52 22.74814 41.32671 36042 ft 413 kts 249°
2026-04-29 19:53 22.72697 41.26883 36046 ft 413 kts 249°
2026-04-29 19:53 22.70580 41.21092 36047 ft 413 kts 248°
2026-04-29 19:54 22.67411 41.12427 36060 ft 414 kts 249°
2026-04-29 19:54 22.65283 41.06644 36061 ft 413 kts 249°
2026-04-29 19:55 22.63158 41.00860 36041 ft 414 kts 249°
2026-04-29 19:55 22.61020 40.95064 36048 ft 414 kts 248°
2026-04-29 19:56 22.58880 40.89267 36048 ft 415 kts 249°
2026-04-29 19:56 22.56758 40.83511 36056 ft 415 kts 249°
2026-04-29 19:57 22.54983 40.78683 36059 ft 415 kts 249°
2026-04-29 19:57 22.52479 40.71889 36057 ft 415 kts 249°
2026-04-29 19:58 22.50343 40.66134 36044 ft 415 kts 248°
2026-04-29 19:58 22.48571 40.61348 36030 ft 403 kts 248°
2026-04-29 19:59 22.46492 40.55734 36044 ft 407 kts 248°
2026-04-29 19:59 22.44381 40.50037 36052 ft 408 kts 248°
2026-04-29 20:00 22.42262 40.44332 36074 ft 409 kts 248°
2026-04-29 20:00 22.40130 40.38621 35742 ft 408 kts 249°
2026-04-29 20:01 22.39067 40.35776 34980 ft 409 kts 249°
2026-04-29 20:01 22.38001 40.32923 34207 ft 410 kts 249°
2026-04-29 20:01 22.36948 40.30100 33311 ft 411 kts 249°
2026-04-29 20:01 22.35879 40.27234 32421 ft 411 kts 249°
2026-04-29 20:02 22.34806 40.24367 31519 ft 412 kts 249°
2026-04-29 20:02 22.33730 40.21496 30644 ft 412 kts 249°
2026-04-29 20:02 22.32652 40.18619 29548 ft 415 kts 249°
2026-04-29 20:02 22.31919 40.16661 28787 ft 417 kts 249°
2026-04-29 20:03 22.30480 40.12817 27479 ft 417 kts 249°
2026-04-29 20:03 22.29389 40.09898 26463 ft 420 kts 249°
2026-04-29 20:03 22.28302 40.06996 25824 ft 414 kts 249°
2026-04-29 20:03 22.27224 40.04128 25133 ft 411 kts 249°
2026-04-29 20:04 22.25971 40.01371 24594 ft 406 kts 240°
2026-04-29 20:04 22.24446 39.98873 24477 ft 390 kts 238°
2026-04-29 20:04 22.22972 39.96471 24358 ft 376 kts 238°
2026-04-29 20:04 22.21561 39.94151 24234 ft 363 kts 238°
2026-04-29 20:05 22.20218 39.91937 24103 ft 350 kts 238°
2026-04-29 20:05 22.18899 39.89766 23850 ft 343 kts 238°
2026-04-29 20:05 22.17597 39.87627 23772 ft 340 kts 238°
2026-04-29 20:05 22.16293 39.85487 23392 ft 343 kts 238°
2026-04-29 20:06 22.14979 39.83331 22826 ft 343 kts 238°
2026-04-29 20:06 22.13664 39.81183 22340 ft 342 kts 238°
2026-04-29 20:06 22.12355 39.79050 21942 ft 339 kts 238°
2026-04-29 20:06 22.11055 39.76934 21435 ft 339 kts 239°
2026-04-29 20:07 22.09763 39.74828 21011 ft 336 kts 239°
2026-04-29 20:07 22.08471 39.72720 20586 ft 335 kts 239°
2026-04-29 20:07 22.07194 39.70634 20202 ft 332 kts 239°
2026-04-29 20:07 22.05920 39.68552 19786 ft 331 kts 239°
2026-04-29 20:08 22.04652 39.66484 19370 ft 330 kts 239°
2026-04-29 20:08 22.03814 39.65120 19110 ft 329 kts 239°
2026-04-29 20:08 22.02124 39.62372 18589 ft 328 kts 240°
2026-04-29 20:08 22.00860 39.60318 18186 ft 327 kts 240°
2026-04-29 20:09 21.99607 39.58280 17768 ft 325 kts 240°
2026-04-29 20:09 21.98378 39.56281 17383 ft 323 kts 240°
2026-04-29 20:09 21.97141 39.54266 17014 ft 321 kts 239°
2026-04-29 20:09 21.95915 39.52267 16649 ft 319 kts 239°
2026-04-29 20:10 21.94699 39.50290 16279 ft 317 kts 239°
2026-04-29 20:10 21.93663 39.48216 15914 ft 313 kts 246°
2026-04-29 20:10 21.92725 39.46103 15549 ft 311 kts 246°
2026-04-29 20:10 21.91792 39.44000 15161 ft 311 kts 246°
2026-04-29 20:11 21.90858 39.41893 14762 ft 312 kts 246°
2026-04-29 20:11 21.89922 39.39787 14369 ft 312 kts 245°
2026-04-29 20:11 21.88986 39.37684 13966 ft 312 kts 245°
2026-04-29 20:11 21.88047 39.35583 13562 ft 311 kts 245°
2026-04-29 20:12 21.87108 39.33486 13135 ft 311 kts 245°
2026-04-29 20:12 21.86169 39.31391 12704 ft 310 kts 245°
2026-04-29 20:12 21.85233 39.29301 12269 ft 309 kts 245°
2026-04-29 20:12 21.84314 39.27245 11859 ft 309 kts 245°
2026-04-29 20:13 21.83373 39.25138 11440 ft 307 kts 244°
2026-04-29 20:13 21.82167 39.23260 11030 ft 308 kts 221°
2026-04-29 20:13 21.80290 39.22255 10636 ft 311 kts 192°
2026-04-29 20:13 21.78133 39.22341 10235 ft 314 kts 169°
2026-04-29 20:14 21.76062 39.23111 9848 ft 316 kts 159°
2026-04-29 20:14 21.74084 39.24128 9422 ft 315 kts 155°
2026-04-29 20:14 21.72123 39.25182 8993 ft 313 kts 156°
2026-04-29 20:14 21.70159 39.26173 8571 ft 311 kts 158°
2026-04-29 20:15 21.68175 39.27088 8150 ft 309 kts 160°
2026-04-29 20:15 21.66188 39.27937 7738 ft 307 kts 161°
2026-04-29 20:15 21.64197 39.28742 7334 ft 304 kts 162°
2026-04-29 20:15 21.62216 39.29522 6933 ft 302 kts 162°
2026-04-29 20:16 21.60260 39.30280 6502 ft 294 kts 162°
2026-04-29 20:16 21.58375 39.31009 6066 ft 282 kts 162°
2026-04-29 20:16 21.56554 39.31715 5579 ft 274 kts 162°
2026-04-29 20:16 21.54788 39.32400 5099 ft 266 kts 162°
2026-04-29 20:17 21.53063 39.33072 4623 ft 261 kts 162°
2026-04-29 20:17 21.51393 39.33725 4131 ft 256 kts 162°
2026-04-29 20:17 21.49727 39.34378 3664 ft 254 kts 161°
2026-04-29 20:17 21.48078 39.35023 3181 ft 250 kts 161°
2026-04-29 20:18 21.46437 39.35355 3021 ft 230 kts 184°
2026-04-29 20:18 21.44940 39.35014 3021 ft 215 kts 207°
2026-04-29 20:18 21.43737 39.34133 3027 ft 207 kts 231°
2026-04-29 20:18 21.42924 39.32895 3025 ft 202 kts 249°
2026-04-29 20:19 21.42522 39.31473 3030 ft 198 kts 265°
2026-04-29 20:19 21.42549 39.30009 3018 ft 195 kts 284°
2026-04-29 20:19 21.42983 39.28646 3017 ft 192 kts 300°
2026-04-29 20:19 21.43772 39.27499 3017 ft 191 kts 317°
2026-04-29 20:20 21.44844 39.26666 3015 ft 191 kts 334°
2026-04-29 20:20 21.46080 39.26147 3016 ft 191 kts 339°
2026-04-29 20:20 21.47327 39.25658 3015 ft 191 kts 339°
2026-04-29 20:20 21.48559 39.25174 3015 ft 191 kts 339°
2026-04-29 20:21 21.49808 39.24683 3016 ft 191 kts 339°
2026-04-29 20:21 21.51051 39.24194 3038 ft 187 kts 339°
2026-04-29 20:21 21.52232 39.23730 2917 ft 177 kts 339°
2026-04-29 20:21 21.53372 39.23281 2704 ft 172 kts 340°
2026-04-29 20:22 21.54479 39.22846 2501 ft 167 kts 340°
2026-04-29 20:22 21.55549 39.22424 2297 ft 161 kts 340°
2026-04-29 20:22 21.56583 39.22018 2089 ft 156 kts 340°
2026-04-29 20:22 21.57581 39.21625 1892 ft 149 kts 340°
2026-04-29 20:23 21.58530 39.21251 1704 ft 141 kts 341°
2026-04-29 20:23 21.59438 39.20894 1524 ft 138 kts 341°
2026-04-29 20:23 21.60329 39.20543 1353 ft 136 kts 341°
2026-04-29 20:23 21.61213 39.20194 1196 ft 135 kts 341°
2026-04-29 20:24 21.62095 39.19847 1006 ft 135 kts 340°
2026-04-29 20:24 21.62973 39.19502 826 ft 135 kts 341°
2026-04-29 20:24 21.63857 39.19153 674 ft 133 kts 341°
2026-04-29 20:24 21.64731 39.18809 503 ft 135 kts 341°
2026-04-29 20:25 21.65595 39.18468 327 ft 133 kts 342°
2026-04-29 20:25 21.66468 39.18124 123 ft 134 kts 341°
2026-04-29 20:25 21.67315 39.17788 31 ft 117 kts 340°
2026-04-29 20:25 21.67911 39.17566 32 ft 66 kts 341°
2026-04-29 20:26 21.68177 39.17457 28 ft 16 kts 334°
2026-04-29 20:26 21.68242 39.17416 28 ft 19 kts 323°
2026-04-29 20:26 21.68366 39.17276 25 ft 29 kts 306°
2026-04-29 20:26 21.68426 39.17164 26 ft 14 kts 264°
2026-04-29 20:27 21.68367 39.17135 27 ft 0 kts 162°